New Rooks County (RCP)
Stockton, KS
Field Elevation: 1999
Lat: 39°20.80N  Long: 99°18.28W
CTAF/Unicom Freq: 122.9000
   
    
Weather Advisories
10/25/2014 04:11 Z
Altimeter 30.02" Hg
Wind 200° @ 6 KT
Gusts --
Visibility 10 SM
Temperature 22° C (72° F)
Dewpoint 3° C (37° F)
Relative Humidity 30%
Density Altitude 3,100 feet
Condensation Altitude 11,200 feet
  Wind and Runways
Indicated Runway = 18
History
 
 
More Info
All DigiWx sites map
NOAA Forecast
 
Airport IQ 5010
(FLV) Sherman Airfield
(K68) Garnett Municipal Airport
 
about DigiWx
 
FAA Disclaimer: The data displayed is for advisory purposes only and is not to be used for flight planning or operations. For official data, please call (not available) to hear the current automated AWOS voice message.
  METAR RCP 250411Z AUTO 20006KT 10SM 22/03 A3002